TimeMDT,TemperatureF,Dew PointF,Humidity,Sea Level PressureIn,VisibilityMPH,Wind Direction,Wind SpeedMPH,Gust SpeedMPH,PrecipitationIn,Events,Conditions,WindDirDegrees,DateUTC
12:56 AM,63.0,37.9,40,29.75,10.0,SE,6.9,-,N/A,,Scattered Clouds,140,2013-08-02 06:56:00
1:56 AM,59.9,36.9,42,29.76,10.0,SSE,6.9,-,N/A,,Scattered Clouds,160,2013-08-02 07:56:00
2:56 AM,56.8,34.9,44,29.78,10.0,South,10.4,-,N/A,,Clear,170,2013-08-02 08:56:00
3:56 AM,54.9,34.0,45,29.79,10.0,SSE,10.4,-,N/A,,Clear,160,2013-08-02 09:56:00
4:56 AM,50.0,36.0,59,29.82,10.0,SSE,8.1,-,N/A,,Clear,160,2013-08-02 10:56:00
5:56 AM,50.9,34.0,52,29.84,10.0,SSE,9.2,-,N/A,,Clear,150,2013-08-02 11:56:00
6:56 AM,52.0,32.9,48,29.87,10.0,South,10.4,-,N/A,,Clear,180,2013-08-02 12:56:00
7:56 AM,57.9,34.0,41,29.88,10.0,South,10.4,-,N/A,,Clear,170,2013-08-02 13:56:00
8:56 AM,61.9,38.8,43,29.91,10.0,SW,6.9,-,N/A,,Clear,230,2013-08-02 14:56:00
9:56 AM,63.9,38.8,40,29.93,10.0,SSW,3.5,-,N/A,,Clear,200,2013-08-02 15:56:00
10:56 AM,68.9,37.9,32,29.92,10.0,SW,9.2,-,N/A,,Clear,220,2013-08-02 16:56:00
11:56 AM,72.0,31.1,22,29.91,10.0,West,10.4,-,N/A,,Clear,260,2013-08-02 17:56:00
12:56 PM,72.0,32.9,24,29.91,10.0,Variable,3.5,-,N/A,,Clear,0,2013-08-02 18:56:00
1:56 PM,73.9,34.0,23,29.90,10.0,NNW,8.1,-,N/A,,Clear,330,2013-08-02 19:56:00
2:56 PM,74.8,28.0,18,29.90,10.0,WSW,4.6,-,N/A,,Clear,250,2013-08-02 20:56:00
3:56 PM,77.0,28.0,17,29.89,10.0,West,13.8,23.0,N/A,,Clear,260,2013-08-02 21:56:00
4:56 PM,77.9,28.0,16,29.90,10.0,SW,10.4,-,N/A,,Clear,230,2013-08-02 22:56:00
5:56 PM,77.0,28.0,17,29.90,10.0,West,10.4,-,N/A,,Clear,260,2013-08-02 23:56:00
6:56 PM,75.9,28.0,17,29.90,10.0,WNW,9.2,-,N/A,,Clear,300,2013-08-03 00:56:00
7:56 PM,72.9,36.0,26,29.89,10.0,NNE,4.6,-,N/A,,Clear,30,2013-08-03 01:56:00
8:56 PM,61.9,36.9,39,29.93,10.0,ENE,6.9,-,N/A,,Clear,60,2013-08-03 02:56:00
9:56 PM,59.0,34.0,39,29.94,10.0,ENE,9.2,-,N/A,,Clear,70,2013-08-03 03:56:00
10:56 PM,55.9,36.0,47,29.93,10.0,SSW,4.6,-,N/A,,Clear,200,2013-08-03 04:56:00
11:56 PM,50.0,36.9,61,29.94,10.0,North,4.6,-,N/A,,Clear,360,2013-08-03 05:56:00